{"data":{"norad_id":59754,"intl_designator":"2024-091B","name":"STARLINK-11118 [DTC]","alt_names":[],"object_type":"PAYLOAD","status":"ACTIVE","operator":null,"country":"US","launch_date":"2024-05-14","launch_site_code":"AFWTR","launch_vehicle":null,"mission":null,"orbit_class":"UNKNOWN","rcs_meters":null,"size_class":null,"mass_kg":null,"dimensions":null,"purposes":["comms"],"wikipedia_slug":null,"has_3d_model":false,"image_url":null,"decayed_at":null,"tle_current":{"epoch":"2026-05-24T13:12:40.409280Z","epoch_age_seconds":110499,"freshness":"FRESH","line1":"1 59754U 24091B   26144.55046770  .00000358  00000+0  78186-5 0  9997","line2":"2 59754  53.1595 192.6272 0001223  67.3194 292.7954 15.69704269117429","mean_motion":15.69704269,"eccentricity":0.0001223,"inclination_deg":53.1595,"raan_deg":192.6272,"arg_perigee_deg":67.3194,"mean_anomaly_deg":292.7954,"bstar":7.8186e-6,"rev_number":11742,"period_min":91.737025147888,"perigee_km":358.91910765557,"apogee_km":360.56719314036,"semimajor_km":6737.880150398,"source":"CELESTRAK","updated_at":"2026-05-25T13:38:19.055610Z"}}}